Terug naar catalogus

CZ-6A DEB

ActiefPO
NORAD 60864·DEBRIS·🇨🇳 China

Gelanceerd Aug 6, 2024 vanaf Taiyuan Satellite Launch Center

Loading…

Volgende Passages (komende 24 uur)

TLE

VersSource: Space-Track

Epoch: Sep 14, 2026, 13:12 UTC

1 60864U 24140JT  26257.55011536  .00001166  00000-0  40164-3 0  9995
2 60864  89.4091 300.3494 0018637  60.7640 299.5419 14.35316467108309

Volg CZ-6A DEB in realtime met AllMySat

Download on the App Store